Lumberton, NC

9:15 PM EST on February 25, 2018 (GMT -0500)
Lumberton Municipal

Weather History for KLBT - April, 2012

Change the Weather History Date:

Thursday, April 26, 2012

  Actual Average Record
Temperature  
Mean Temperature 71 °F 64 °F  
Max Temperature 82 °F 77 °F 86 °F (2007)
Min Temperature 59 °F 51 °F 39 °F (2001)
Degree Days  
Heating Degree Days 0 3  
Month to date heating degree days 137 141  
Since 1 July heating degree days 2136 2717  
Cooling Degree Days 6 2  
Month to date cooling degree days 50 44  
Year to date cooling degree days 118 57  
Growing Degree Days 20 (Base 50)    
Moisture  
Dew Point 58 °F    
Average Humidity 65    
Maximum Humidity 87    
Minimum Humidity 43    
Precipitation  
Precipitation 0.01 in 0.08 in 0.73 in (2004)
Month to date precipitation 2.11 2.52  
Year to date precipitation 10.85 11.72  
Sea Level Pressure  
Sea Level Pressure 29.85 in    
Wind  
Wind Speed 9 mph (SW)    
Max Wind Speed 26 mph    
Max Gust Speed 35 mph    
Visibility 10 miles    
Events Rain    
T = Trace of Precipitation, MM = Missing Value Source: NWS Daily Summary

Daily Weather History Graph

Daily Weather History Graph

Search for Another Location

Airport or City:

Trip Planner

Search our weather history database for the weather conditions in past years. The results will help you decide how hot, cold, wet, or windy it might be!

Date:

Astronomy

Apr. 26, 2012 Rise Set
Actual Time 6:30 AM EDT 7:57 PM EDT
Civil Twilight 6:04 AM EDT 8:24 PM EDT
Nautical Twilight 5:32 AM EDT 8:56 PM EDT
Astronomical Twilight 4:59 AM EDT 9:29 PM EDT
Moon 10:13 AM EDT No Moon Set
Length of Visible Light 14h 19m
Length of Day
13h 26m
Waxing Crescent, 24% of the Moon is Illuminated
Apr 26
Waxing Crescent
Apr 29
First Quarter
May 5
Full
May 12
Last Quarter
May 20
New

Hourly Weather History & Observations

Time (EDT) Temp. Heat Index Dew Point Humidity Pressure Visibility Wind Dir Wind Speed Gust Speed Precip Events Conditions
12:54 AM 59.0 °F - 55.0 °F 87% 29.90 in 9.0 mi SE 3.5 mph - N/A   Scattered Clouds
1:54 AM 60.1 °F - 55.0 °F 83% 29.88 in 10.0 mi South 5.8 mph - N/A   Clear
2:54 AM 62.1 °F - 55.9 °F 80% 29.86 in 10.0 mi SSW 5.8 mph - N/A   Clear
3:54 AM 64.0 °F - 55.9 °F 75% 29.85 in 10.0 mi SSW 8.1 mph - N/A   Clear
4:54 AM 64.9 °F - 55.0 °F 70% 29.83 in 10.0 mi SSW 8.1 mph - N/A   Clear
5:54 AM 66.0 °F - 54.0 °F 65% 29.84 in 10.0 mi SSW 8.1 mph - N/A   Clear
6:54 AM 66.0 °F - 54.0 °F 65% 29.85 in 10.0 mi SSW 9.2 mph - N/A   Clear
7:54 AM 66.9 °F - 55.0 °F 66% 29.86 in 10.0 mi Variable 6.9 mph - N/A   Clear
8:54 AM 71.1 °F - 55.9 °F 59% 29.84 in 10.0 mi SW 11.5 mph 19.6 mph N/A   Clear
9:54 AM 72.0 °F - 57.0 °F 59% 29.83 in 10.0 mi WSW 17.3 mph 25.3 mph N/A   Clear
10:54 AM 75.9 °F - 57.0 °F 52% 29.83 in 10.0 mi WSW 16.1 mph 26.5 mph N/A   Clear
11:54 AM 78.1 °F - 57.9 °F 50% 29.86 in 9.0 mi WSW 24.2 mph 31.1 mph N/A   Scattered Clouds
12:54 PM 78.1 °F - 59.0 °F 52% 29.86 in 10.0 mi West 24.2 mph 28.8 mph N/A   Partly Cloudy
1:54 PM 78.1 °F - 57.0 °F 48% 29.78 in 10.0 mi SW 9.2 mph 23.0 mph N/A   Clear
2:54 PM 82.0 °F 81.7 °F 57.0 °F 42% 29.83 in 10.0 mi West 18.4 mph 32.2 mph N/A   Partly Cloudy
3:54 PM 73.9 °F - 59.0 °F 59% 29.85 in 10.0 mi WNW 9.2 mph 19.6 mph 0.00 in Rain Light Rain
4:54 PM 69.1 °F - 62.1 °F 78% 29.84 in 10.0 mi Calm Calm - 0.00 in   Overcast
5:54 PM 70.0 °F - 64.0 °F 81% 29.84 in 10.0 mi South 4.6 mph - 0.01 in   Mostly Cloudy
6:54 PM 69.1 °F - 63.0 °F 81% 29.82 in 10.0 mi Calm Calm - N/A   Scattered Clouds
7:54 PM 68.0 °F - 64.0 °F 87% 29.82 in 9.0 mi SSE 5.8 mph - N/A   Overcast
8:54 PM 68.0 °F - 64.9 °F 90% 29.85 in 10.0 mi Calm Calm - N/A   Overcast
9:54 PM 68.0 °F - 64.9 °F 90% 29.85 in 9.0 mi SSW 4.6 mph - N/A   Mostly Cloudy
10:54 PM 72.0 °F - 61.0 °F 68% 29.86 in 10.0 mi SW 10.4 mph 19.6 mph N/A   Clear
11:54 PM 71.1 °F - 57.9 °F 63% 29.87 in 10.0 mi WSW 10.4 mph 18.4 mph N/A   Mostly Cloudy